EW4205 Weather Reports


time (UTC)temp
C
wind
direction
speed
KPH
gust
KPH
rain 1hr
cm
rain 24hr
cm
rain mn
cm
humidity
%
barometer
mb
20260507063046 16 338 8.0 14.5 0.00 0.00 0.00 54 1011.2
20260507062546 16 328 4.8 14.5 0.00 0.00 0.00 54 1011.3
20260507062046 16 304 4.8 16.1 0.00 0.00 0.00 53 1011.3
20260507061546 16 307 8.0 17.7 0.00 0.00 0.00 53 1011.2
20260507061046 16 291 8.0 14.5 0.00 0.00 0.00 53 1011.1
20260507060545 16 338 6.4 12.9 0.00 0.00 0.00 52 1011.1
20260507060045 16 347 3.2 8.0 0.00 0.00 0.00 50 1011.2
20260507055545 17 305 3.2 9.7 0.00 0.00 0.00 50 1011.3
20260507055045 17 338 4.8 14.5 0.00 0.00 0.00 49 1011.2
20260507054551 17 348 6.4 24.1 0.00 0.00 0.00 48 1011.1
20260507054044 17 286 11.3 24.1 0.00 0.00 0.00 47 1011.0
20260507053544 17 295 11.3 20.9 0.00 0.00 0.00 47 1011.1
20260507053045 17 313 6.4 20.9 0.00 0.00 0.00 46 1011.1
20260507052543 17 256 8.0 17.7 0.00 0.00 0.00 46 1011.2
20260507052044 17 8 9.7 19.3 0.00 0.00 0.00 46 1011.2
20260507051543 17 266 6.4 17.7 0.00 0.00 0.00 46 1011.1
20260507051042 17 319 8.0 16.1 0.00 0.00 0.00 45 1011.0
20260507050542 17 326 8.0 16.1 0.00 0.00 0.00 45 1011.1
20260507050043 18 303 4.8 11.3 0.00 0.00 0.00 45 1011.1
20260507045542 18 317 4.8 11.3 0.00 0.00 0.00 44 1011.1
20260507045041 18 334 4.8 11.3 0.00 0.00 0.00 43 1011.1
20260507044547 18 326 3.2 14.5 0.00 0.00 0.00 43 1011.1
20260507044043 18 302 4.8 16.1 0.00 0.00 0.00 42 1011.1
20260507043540 19 299 3.2 17.7 0.00 0.00 0.00 42 1011.0
20260507043042 19 307 4.8 17.7 0.00 0.00 0.00 41 1010.9
20260507042541 20 317 4.8 19.3 0.00 0.00 0.00 41 1010.8
20260507042039 20 311 6.4 20.9 0.00 0.00 0.00 40 1010.7
20260507041538 20 12 9.7 22.5 0.00 0.00 0.00 40 1010.6
20260507041037 20 354 6.4 22.5 0.00 0.00 0.00 39 1010.5
20260507040538 20 320 6.4 22.5 0.00 0.00 0.00 39 1010.3
20260507040038 21 10 6.4 24.1 0.00 0.00 0.00 38 1010.2
20260507035537 21 247 11.3 24.1 0.00 0.00 0.00 37 1010.1
20260507035037 21 276 9.7 20.9 0.00 0.00 0.00 36 1009.9
20260507034536 21 300 9.7 19.3 0.00 0.00 0.00 36 1009.9
20260507034036 21 345 8.0 22.5 0.00 0.00 0.00 35 1009.9
20260507033539 22 300 4.8 22.5 0.00 0.00 0.00 36 1009.9
20260507033036 22 309 6.4 22.5 0.00 0.00 0.00 35 1009.8
20260507032536 22 312 6.4 20.9 0.00 0.00 0.00 34 1009.9
20260507032034 22 228 3.2 16.1 0.00 0.00 0.00 34 1009.8
20260507031534 22 291 6.4 16.1 0.00 0.00 0.00 33 1009.7
20260507031039 22 308 4.8 16.1 0.00 0.00 0.00 33 1009.7
20260507030534 22 311 4.8 14.5 0.00 0.00 0.00 33 1009.6
20260507030040 22 328 4.8 12.9 0.00 0.00 0.00 33 1009.6
20260507025535 23 309 4.8 14.5 0.00 0.00 0.00 32 1009.6
20260507025035 23 317 4.8 12.9 0.00 0.00 0.00 32 1009.6
20260507024535 23 310 3.2 14.5 0.00 0.00 0.00 32 1009.6
20260507024035 23 307 3.2 14.5 0.00 0.00 0.00 32 1009.6
20260507023537 23 295 4.8 12.9 0.00 0.00 0.00 32 1009.6
20260507023034 23 302 4.8 14.5 0.00 0.00 0.00 32 1009.5
20260507022533 23 326 6.4 14.5 0.00 0.00 0.00 31 1009.5
20260507022032 23 276 8.0 12.9 0.00 0.00 0.00 31 1009.6
20260507021532 23 322 4.8 16.1 0.00 0.00 0.00 31 1009.4
20260507021032 23 3 6.4 16.1 0.00 0.00 0.00 31 1009.5
20260507020532 23 326 4.8 12.9 0.00 0.00 0.00 32 1009.4
20260507020033 23 322 6.4 16.1 0.00 0.00 0.00 30 1009.6
20260507015532 23 16 4.8 11.3 0.00 0.00 0.00 30 1009.4
20260507015032 23 313 4.8 11.3 0.00 0.00 0.00 31 1009.4
20260507014535 23 280 3.2 9.7 0.00 0.00 0.00 31 1009.4
20260507014032 23 299 4.8 14.5 0.00 0.00 0.00 30 1009.2
20260507013531 23 286 1.6 14.5 0.00 0.00 0.00 31 1009.3
20260507013032 23 299 3.2 17.7 0.00 0.00 0.00 30 1009.2
20260507012531 23 312 8.0 17.7 0.00 0.00 0.00 30 1009.2
20260507012034 24 341 6.4 16.1 0.00 0.00 0.00 30 1009.2
20260507011532 24 328 8.0 17.7 0.00 0.00 0.00 31 1009.2
20260507011030 24 324 4.8 11.3 0.00 0.00 0.00 32 1009.2
20260507010531 24 324 4.8 12.9 0.00 0.00 0.00 32 1009.2
20260507010029 24 264 3.2 12.9 0.00 0.00 0.00 31 1009.2
20260507005530 24 319 3.2 12.9 0.00 0.00 0.00 31 1009.3
20260507005029 24 307 3.2 11.3 0.00 0.00 0.00 32 1009.2
20260507004528 25 316 4.8 9.7 0.00 0.00 0.00 31 1009.2
20260507004030 25 328 4.8 14.5 0.00 0.00 0.00 31 1009.2
20260507003527 25 321 4.8 14.5 0.00 0.00 0.00 31 1009.2
20260507003028 25 264 6.4 14.5 0.00 0.00 0.00 31 1009.1
20260507002532 25 232 4.8 17.7 0.00 0.00 0.00 32 1009.1
20260507002028 25 305 4.8 17.7 0.00 0.00 0.00 32 1009.0
20260507001527 25 260 4.8 12.9 0.00 0.00 0.00 32 1008.9
20260507001027 25 323 3.2 14.5 0.00 0.00 0.00 32 1008.8
20260507000527 26 305 3.2 14.5 0.00 0.00 0.00 32 1008.8
20260507000028 26 282 3.2 11.3 0.00 0.00 0.00 31 1008.8
20260506235527 26 1 4.8 14.5 0.00 0.00 0.00 31 1008.8
20260506235026 26 308 4.8 22.5 0.00 0.00 0.00 31 1008.8
20260506234526 26 264 8.0 17.7 0.00 0.00 0.00 29 1008.8
20260506234026 27 274 8.0 14.5 0.00 0.00 0.00 30 1008.7
20260506233525 27 3 4.8 14.5 0.00 0.00 0.00 30 1008.6
20260506233026 27 5 3.2 17.7 0.00 0.00 0.00 30 1008.6
20260506232525 27 251 6.4 16.1 0.00 0.00 0.00 29 1008.6
20260506232025 27 292 6.4 16.1 0.00 0.00 0.00 29 1008.6
20260506231526 27 288 8.0 16.1 0.00 0.00 0.00 28 1008.6
20260506231028 28 264 6.4 16.1 0.00 0.00 0.00 29 1008.5
20260506230524 28 291 6.4 19.3 0.00 0.00 0.00 29 1008.5
20260506230025 28 254 6.4 19.3 0.00 0.00 0.00 28 1008.6
20260506225524 29 305 8.0 17.7 0.00 0.00 0.00 27 1008.6
20260506225024 30 341 6.4 17.7 0.00 0.00 0.00 27 1008.6
20260506224524 30 282 6.4 17.7 0.00 0.00 0.00 27 1008.6
20260506224025 30 320 8.0 20.9 0.00 0.00 0.00 27 1008.6
20260506223523 30 311 9.7 20.9 0.00 0.00 0.00 26 1008.5
20260506223023 30 262 6.4 24.1 0.00 0.00 0.00 27 1008.6
20260506222523 30 240 9.7 24.1 0.00 0.00 0.00 26 1008.6
20260506222023 30 258 9.7 22.5 0.00 0.00 0.00 26 1008.6
20260506221524 31 268 6.4 17.7 0.00 0.00 0.00 26 1008.4
20260506221023 31 257 8.0 25.7 0.00 0.00 0.00 26 1008.5
20260506220522 31 353 11.3 25.7 0.00 0.00 0.00 24 1008.5
20260506220029 31 292 8.0 22.5 0.00 0.00 0.00 23 1008.5
20260506215522 31 286 11.3 17.7 0.00 0.00 0.00 24 1008.5
20260506215022 31 289 8.0 19.3 0.00 0.00 0.00 23 1008.5
20260506214523 31 236 8.0 20.9 0.00 0.00 0.00 25 1008.5
20260506214021 31 234 9.7 20.9 0.00 0.00 0.00 25 1008.3
20260506213521 31 272 4.8 20.9 0.00 0.00 0.00 22 1008.4
20260506213020 32 324 8.0 24.1 0.00 0.00 0.00 22 1008.4
20260506212519 32 278 11.3 24.1 0.00 0.00 0.00 23 1008.4
20260506212019 32 301 6.4 19.3 0.00 0.00 0.00 24 1008.4
20260506211518 31 266 6.4 19.3 0.00 0.00 0.00 23 1008.5
20260506211018 31 320 8.0 19.3 0.00 0.00 0.00 21 1008.5
20260506210520 31 297 8.0 24.1 0.00 0.00 0.00 22 1008.5
20260506210019 31 182 8.0 24.1 0.00 0.00 0.00 23 1008.5
20260506205516 31 303 4.8 17.7 0.00 0.00 0.00 24 1008.4
20260506205018 31 254 6.4 19.3 0.00 0.00 0.00 23 1008.5
20260506204521 31 318 8.0 19.3 0.00 0.00 0.00 22 1008.5
20260506204014 32 337 9.7 19.3 0.00 0.00 0.00 23 1008.5
20260506203513 32 328 8.0 20.9 0.00 0.00 0.00 22 1008.5
20260506203014 32 299 8.0 17.7 0.00 0.00 0.00 23 1008.6
20260506202514 32 256 4.8 14.5 0.00 0.00 0.00 26 1008.6
20260506202013 32 328 8.0 14.5 0.00 0.00 0.00 23 1008.6
20260506201513 32 254 4.8 17.7 0.00 0.00 0.00 26 1008.6
20260506201014 32 226 8.0 17.7 0.00 0.00 0.00 23 1008.6
20260506200511 32 314 4.8 12.9 0.00 0.00 0.00 25 1008.6
20260506200019 32 309 3.2 12.9 0.00 0.00 0.00 23 1008.6
20260506195511 32 212 3.2 14.5 0.00 0.00 0.00 26 1008.6
20260506195013 32 272 3.2 14.5 0.00 0.00 0.00 25 1008.7
20260506194511 31 315 4.8 16.1 0.00 0.00 0.00 27 1008.8
20260506194017 31 247 4.8 16.1 0.00 0.00 0.00 24 1008.8
20260506193509 31 39 6.4 16.1 0.00 0.00 0.00 25 1008.8
20260506193013 31 4 8.0 16.1 0.00 0.00 0.00 23 1008.9
20260506192509 32 266 8.0 14.5 0.00 0.00 0.00 21 1008.9
20260506192009 32 307 4.8 12.9 0.00 0.00 0.00 24 1008.9
20260506191510 32 282 4.8 11.3 0.00 0.00 0.00 25 1009.0
20260506191007 32 243 3.2 12.9 0.00 0.00 0.00 24 1009.0
20260506190506 32 241 3.2 12.9 0.00 0.00 0.00 23 1009.0
20260506190004 31 216 3.2 9.7 0.00 0.00 0.00 25 1009.0
20260506185502 31 221 1.6 9.7 0.00 0.00 0.00 24 1009.0
20260506185002 31 220 3.2 20.9 0.00 0.00 0.00 25 1009.1
20260506184502 31 340 12.9 20.9 0.00 0.00 0.00 24 1009.1
20260506184002 31 224 4.8 17.7 0.00 0.00 0.00 25 1009.2
20260506183600 31 253 4.8 17.7 0.00 0.00 0.00 26 1009.3
20260506183100 30 224 6.4 19.3 0.00 0.00 0.00 25 1009.2
20260506182556 30 311 4.8 19.3 0.00 0.00 0.00 27 1009.2
20260506182056 30 292 4.8 14.5 0.00 0.00 0.00 28 1009.3
20260506181555 30 313 6.4 14.5 0.00 0.00 0.00 28 1009.3
20260506181053 29 264 3.2 16.1 0.00 0.00 0.00 28 1009.3
20260506180552 29 314 8.0 16.1 0.00 0.00 0.00 27 1009.4
20260506180051 28 285 4.8 17.7 0.00 0.00 0.00 30 1009.4
20260506175550 28 227 3.2 12.9 0.00 0.00 0.00 30 1009.4
20260506175049 28 266 4.8 14.5 0.00 0.00 0.00 30 1009.4
20260506174546 27 314 8.0 17.7 0.00 0.00 0.00 29 1009.4
20260506174045 27 220 4.8 14.5 0.00 0.00 0.00 30 1009.5
20260506173543 27 260 6.4 14.5 0.00 0.00 0.00 30 1009.5
20260506173056 27 353 6.4 14.5 0.00 0.00 0.00 30 1009.6
20260506172541 26 310 6.4 14.5 0.00 0.00 0.00 31 1009.6
20260506172039 26 293 6.4 14.5 0.00 0.00 0.00 32 1009.6
20260506171550 26 279 4.8 16.1 0.00 0.00 0.00 32 1009.6
20260506171037 26 309 8.0 16.1 0.00 0.00 0.00 31 1009.6
20260506170537 26 241 4.8 20.9 0.00 0.00 0.00 33 1009.7
20260506170034 25 268 6.4 20.9 0.00 0.00 0.00 34 1009.7
20260506165538 25 319 8.0 16.1 0.00 0.00 0.00 35 1009.8
20260506165031 25 46 6.4 16.1 0.00 0.00 0.00 35 1009.7
20260506164530 25 264 6.4 20.9 0.00 0.00 0.00 35 1009.7
20260506164030 25 293 8.0 19.3 0.00 0.00 0.00 36 1009.8
20260506163532 25 308 6.4 19.3 0.00 0.00 0.00 35 1009.8
20260506163039 25 353 6.4 22.5 0.00 0.00 0.00 35 1009.9
20260506162530 24 280 8.0 25.7 0.00 0.00 0.00 35 1009.9
20260506162129 24 288 9.7 22.5 0.00 0.00 0.00 35 1010.0
20260506161530 23 315 12.9 22.5 0.00 0.00 0.00 36 1010.0
20260506161032 23 355 6.4 25.7 0.00 0.00 0.00 37 1010.2
20260506160532 23 307 12.9 25.7 0.00 0.00 0.00 35 1010.3
20260506160030 24 296 11.3 25.7 0.00 0.00 0.00 36 1010.3
20260506155527 24 223 9.7 17.7 0.00 0.00 0.00 36 1010.3
20260506155028 25 267 9.7 19.3 0.00 0.00 0.00 35 1010.4
20260506154536 25 270 6.4 16.1 0.00 0.00 0.00 36 1010.3
20260506154029 24 305 8.0 14.5 0.00 0.00 0.00 36 1010.4
20260506153525 24 336 3.2 17.7 0.00 0.00 0.00 38 1010.4
20260506153023 24 297 3.2 17.7 0.00 0.00 0.00 37 1010.4
20260506152525 23 287 4.8 12.9 0.00 0.00 0.00 39 1010.5
20260506152020 23 331 3.2 9.7 0.00 0.00 0.00 39 1010.5
20260506151519 23 322 3.2 12.9 0.00 0.00 0.00 39 1010.6
20260506151021 23 280 6.4 12.9 0.00 0.00 0.00 40 1010.6
20260506150516 22 303 4.8 17.7 0.00 0.00 0.00 40 1010.6
20260506150015 22 353 6.4 17.7 0.00 0.00 0.00 40 1010.5
20260506145514 22 306 4.8 14.5 0.00 0.00 0.00 41 1010.5
20260506145011 22 343 8.0 16.1 0.00 0.00 0.00 42 1010.5
20260506144510 21 326 4.8 16.1 0.00 0.00 0.00 43 1010.6
20260506144010 21 301 4.8 17.7 0.00 0.00 0.00 42 1010.6
20260506143511 21 333 4.8 12.9 0.00 0.00 0.00 43 1010.6
20260506143014 20 302 4.8 12.9 0.00 0.00 0.00 44 1010.5
20260506142506 20 247 4.8 16.1 0.00 0.00 0.00 45 1010.5
20260506142003 20 307 4.8 17.7 0.00 0.00 0.00 45 1010.4
20260506141502 19 288 6.4 22.5 0.00 0.00 0.00 46 1010.5
20260506141102 19 308 9.7 22.5 0.00 0.00 0.00 47 1010.5
20260506141003 19 352 6.4 22.5 0.00 0.00 0.00 47 1010.4
20260506140601 18 320 9.7 17.7 0.00 0.00 0.00 47 1010.4
20260506140103 18 336 9.7 17.7 0.00 0.00 0.00 48 1010.4
20260506135557 18 320 8.0 20.9 0.00 0.00 0.00 48 1010.3
20260506135057 18 306 6.4 22.5 0.00 0.00 0.00 48 1010.2
20260506134557 18 324 11.3 22.5 0.00 0.00 0.00 49 1010.2
20260506134056 18 338 9.7 20.9 0.00 0.00 0.00 49 1010.2
20260506133554 18 317 9.7 19.3 0.00 0.00 0.00 50 1010.2
20260506133058 17 311 8.0 19.3 0.00 0.00 0.00 50 1010.2
20260506132552 17 282 6.4 22.5 0.00 0.00 0.00 51 1010.1
20260506132054 17 325 6.4 16.1 0.00 0.00 0.00 52 1010.1
20260506131553 17 349 3.2 16.1 0.00 0.00 0.00 52 1010.1
20260506131052 17 295 1.6 12.9 0.00 0.00 0.00 52 1010.1
20260506130551 17 317 3.2 12.9 0.00 0.00 0.00 52 1010.0
20260506130053 17 340 4.8 14.5 0.00 0.00 0.00 51 1009.9
20260506125549 17 319 6.4 11.3 0.00 0.00 0.00 51 1009.9
20260506125049 17 326 3.2 8.0 0.00 0.00 0.00 51 1009.8
20260506124549 17 311 1.6 6.4 0.00 0.00 0.00 50 1009.8
20260506124048 17 302 3.2 14.5 0.00 0.00 0.00 49 1009.8
20260506123548 17 344 4.8 16.1 0.00 0.00 0.00 48 1009.8
20260506123048 17 323 3.2 16.1 0.00 0.00 0.00 49 1009.7
20260506122648 17 355 3.2 14.5 0.00 0.00 0.00 49 1009.7
20260506122046 17 303 4.8 14.5 0.00 0.00 0.00 47 1009.7
20260506121547 17 317 1.6 9.7 0.00 0.00 0.00 46 1009.7
20260506121046 17 282 3.2 9.7 0.00 0.00 0.00 47 1009.6
20260506120546 17 310 4.8 9.7 0.00 0.00 0.00 45 1009.6
20260506120054 17 5 4.8 12.9 0.00 0.00 0.00 46 1009.6
20260506115545 17 354 4.8 12.9 0.00 0.00 0.00 46 1009.6
20260506115044 17 311 4.8 12.9 0.00 0.00 0.00 46 1009.5
20260506114550 17 337 6.4 16.1 0.00 0.00 0.00 45 1009.4
20260506114043 17 349 6.4 16.1 0.00 0.00 0.00 46 1009.4
20260506113542 17 336 6.4 17.7 0.00 0.00 0.00 48 1009.3
20260506113042 16 342 8.0 17.7 0.00 0.00 0.00 49 1009.4
20260506112541 16 353 3.2 11.3 0.00 0.00 0.00 49 1009.4
20260506112040 16 320 3.2 11.3 0.00 0.00 0.00 49 1009.4
20260506111543 16 332 0.0 3.2 0.00 0.00 0.00 51 1009.4
20260506111043 16 302 0.0 3.2 0.00 0.00 0.00 50 1009.4
20260506110539 16 300 0.0 3.2 0.00 0.00 0.00 50 1009.4
20260506110038 16 303 0.0 4.8 0.00 0.00 0.00 49 1009.3
20260506105542 16 326 0.0 6.4 0.00 0.00 0.00 49 1009.2
20260506105037 15 310 1.6 9.7 0.00 0.00 0.00 50 1009.2
20260506104541 15 336 3.2 9.7 0.00 0.00 0.00 52 1009.1
20260506104036 15 311 1.6 4.8 0.00 0.00 0.00 52 1009.1
20260506103535 15 20 0.0 3.2 0.00 0.00 0.00 54 1009.1
20260506103035 15 17 0.0 3.2 0.00 0.00 0.00 53 1009.1
20260506102535 15 308 0.0 3.2 0.00 0.00 0.00 52 1009.1
20260506102034 15 20 0.0 3.2 0.00 0.00 0.00 53 1009.0
20260506101537 16 56 0.0 3.2 0.00 0.00 0.00 52 1009.0
20260506101034 16 33 1.6 3.2 0.00 0.00 0.00 51 1009.0
20260506100533 16 283 0.0 3.2 0.00 0.00 0.00 49 1008.9
20260506100038 16 286 0.0 3.2 0.00 0.00 0.00 49 1008.9
20260506095533 16 342 0.0 3.2 0.00 0.00 0.00 48 1008.9
20260506095032 16 284 0.0 3.2 0.00 0.00 0.00 47 1009.0
20260506094533 17 295 0.0 3.2 0.00 0.00 0.00 48 1008.9
20260506094034 17 181 0.0 3.2 0.00 0.00 0.00 47 1008.9
20260506093534 17 199 0.0 4.8 0.00 0.00 0.00 47 1008.9
20260506093052 17 199 0.0 8.0 0.00 0.00 0.00 47 1008.8
20260506092532 17 185 3.2 8.0 0.00 0.00 0.00 47 1008.9
20260506092032 17 185 1.6 3.2 0.00 0.00 0.00 48 1008.9
20260506091533 17 302 0.0 6.4 0.00 0.00 0.00 47 1008.8
20260506091031 17 286 1.6 6.4 0.00 0.00 0.00 47 1008.9
20260506090529 17 288 1.6 9.7 0.00 0.00 0.00 48 1008.8
20260506090029 16 297 1.6 11.3 0.00 0.00 0.00 49 1008.8
20260506085529 16 282 1.6 6.4 0.00 0.00 0.00 50 1008.9
20260506085029 16 310 1.6 4.8 0.00 0.00 0.00 51 1008.8
20260506084530 15 239 0.0 4.8 0.00 0.00 0.00 52 1008.8
20260506084029 15 169 0.0 4.8 0.00 0.00 0.00 55 1008.8
20260506083529 15 59 0.0 3.2 0.00 0.00 0.00 55 1008.8
20260506083028 15 28 1.6 6.4 0.00 0.00 0.00 55 1008.8
20260506082531 15 16 0.0 6.4 0.00 0.00 0.00 55 1008.8
20260506082026 15 75 1.6 3.2 0.00 0.00 0.00 55 1008.7
20260506081526 15 23 0.0 4.8 0.00 0.00 0.00 54 1008.8
20260506081026 15 29 0.0 4.8 0.00 0.00 0.00 54 1008.7
20260506080525 15 47 0.0 3.2 0.00 0.00 0.00 54 1008.7
20260506073524 15 3 0.0 3.2 0.00 0.00 0.00 54 1008.5
20260506073020 16 11 1.6 3.2 0.00 0.00 0.00 54 1008.5
20260506072521 16 10 1.6 3.2 0.00 0.00 0.00 53 1008.5
20260506072020 16 11 1.6 3.2 0.00 0.00 0.00 53 1008.5
20260506071516 16 8 0.0 3.2 0.00 0.00 0.00 52 1008.5
20260506071014 16 25 1.6 3.2 0.00 0.00 0.00 51 1008.5
20260506070513 16 22 1.6 3.2 0.00 0.00 0.00 50 1008.5